星链-35164 (STARLINK-35164)

导读 | 豆包AI

STARLINK-35164是美国太空探索技术公司星链星座的成员,于2025年9月5日发射,属于星链网络低轨卫星部署计划的一部分。该卫星承担全球宽带互联网接入服务的覆盖与扩容任务,依托低轨轨道优势,可为偏远地区、移动载体提供低延迟网络连接,进一步扩充星链星座的全球服务能力。

基本信息
目录编号:
65519
目录名称:
STARLINK-35164
国际标识:
2025-198AD
轨道中心:
EARTH
卫星名称:
星链-35164
卫星全名:
星链-35164 (STARLINK-35164)
卫星状态:
在轨 (已飞行211 天)
发射日期:
2025-09-05 UTC
国别 :
美国 (US)
星等 :
--
轨道信息
数据来源 国际轨道数据 AOE轨道数据
星历时间 2026-04-03T21:52:49+0800
21小时前
查看轨道信息
2026-04-04T07:00:00+0800
12小时前
查看轨道信息
半长轴 6853.456km 6853.381km
偏心率 0.00012 0.0000805
轨道倾角 53.158° 53.156°
近地点辐角 85.335° 84.173°
升交点赤经 155.173° 153.409°
平近点角 274.779° 210.373°
近地点 474.496km 474.692km
远地点 476.142km 475.796km
周期 94.107分钟 94.106分钟
每日圈数 15.301655 15.301905
详细信息
固有亮度:
5
最大亮度:
2.5
卫星平台:
Starlink V1.0
覆盖范围:
全球
运营商:
太空探索技术公司
运营商所在国:
美国
制造商(研发单位):
太空探索技术公司
制造商所在国:
美国
使用方式:
暂无
卫星简介
Starlink 计划是 SpaceX 推出的全球卫星互联网项目,通过发射低轨道卫星,为全球尤其是偏远地区提供高速、低延迟的互联网服务。自 2019 年起,Starlink 已部署数千颗卫星,旨在缩小全球数字鸿沟,推动互联网普及。该项目还为军事、航空等行业提供通信支持,带来广泛经济效益。
2D轨道图
3D轨道图
轨道高度分析图
轨道倾角分析图
轨道综合分析图
查看轨道综合分析图